sat.trackr.live / text

‹ back to catalog

STARLINK-37896

NORAD 69970 · 2026-157AD

PAYLOAD ACTIVE UNKNOWN

§ Identity

Operator
Country
US
Launch date
2026-07-09
Launch site
AFETR
Launch vehicle
Mass (kg)
RCS (m²)

Purposes: comms

External: N2YO · Heavens-Above · Gunter

§ Orbital elements

Epoch: 2026-09-19T16:48:11.821248Z

Period
93.85 min
Inclination
53.1608°
Eccentricity
0.0001367
Mean motion
15.34410946 rev/d
Perigee alt
461.7 km
Apogee alt
463.6 km
Semi-major
6,840.8 km
B*
3.7961e-4
RAAN
337.1970°
Arg perigee
89.8995°
Mean anomaly
270.2165°
Rev number
1,125

§ Raw data

STARLINK-378961 69970U 26157AD  26262.70013682  .00012475  00000+0  37961-3 0  99942 69970  53.1608 337.1970 0001367  89.8995 270.2165 15.34410946 11250

JSON: /api/v1/satellites/69970 · /tle

For live sub-satellite position, see the globe view (requires WebGL).

§ Visibility from observer

Set your observer location to see the next 7 days of passes ≥ 10°. The values pass through the URL so the page stays shareable.

No JS? Fill the form by hand. The geolocation button needs JavaScript.